This is the latest recevied weather packets stored in our database for station/object N9PBY-2. If no packets are shown the sender has not sent any weather packets the latest 10 day(s).
| Time | Temp. | Humidity | Pressure | Rain* | Wind** | Luminosity | Snow |
|---|---|---|---|---|---|---|---|
| 1777943407 | 18.33° C | 27% | 996.5 hPa | 0 mm | - | - | - |
| 1777942806 | 18.89° C | 26% | 996.3 hPa | 0 mm | - | - | - |
| 1777942207 | 18.89° C | 25% | 996.2 hPa | 0 mm | - | - | - |
| 1777941607 | 20° C | 25% | 996.1 hPa | 0 mm | - | - | - |
| 1777941007 | 20.56° C | 25% | 996 hPa | 0 mm | - | - | - |
| 1777940406 | 21.11° C | 26% | 995.9 hPa | 0 mm | - | - | - |
| 1777939807 | 21.11° C | 28% | 995.8 hPa | 0 mm | - | - | - |
| 1777939207 | 21.67° C | 27% | 995.6 hPa | 0 mm | - | - | - |
| 1777938606 | 22.22° C | 26% | 995.5 hPa | 0 mm | - | - | - |
| 1777938007 | 22.78° C | 27% | 995.4 hPa | 0 mm | - | - | - |
| 1777937407 | 23.33° C | 28% | 995.5 hPa | 0 mm | - | - | - |
| 1777936807 | 23.33° C | 28% | 995.5 hPa | 0 mm | - | - | - |
| 1777936206 | 23.33° C | 25% | 995.2 hPa | 0 mm | - | - | - |
| 1777935607 | 23.33° C | 26% | 994.9 hPa | 0 mm | - | - | - |
| 1777935006 | 23.89° C | 27% | 994.9 hPa | 0 mm | - | - | - |
| 1777934407 | 23.89° C | 25% | 994.8 hPa | 0 mm | - | - | - |
| 1777933806 | 24.44° C | 24% | 994.7 hPa | 0 mm | - | - | - |
| 1777933207 | 24.44° C | 26% | 994.9 hPa | 0 mm | - | - | - |
| 1777932606 | 25° C | 22% | 994.9 hPa | 0 mm | - | - | - |
| 1777932007 | 25° C | 24% | 994.8 hPa | 0 mm | - | - | - |
| 1777931407 | 25° C | 26% | 994.9 hPa | 0 mm | - | - | - |
| 1777930806 | 25° C | 23% | 994.9 hPa | 0 mm | - | - | - |
| 1777930207 | 25° C | 24% | 995.2 hPa | 0 mm | - | - | - |
| 1777929607 | 24.44° C | 25% | 995.2 hPa | 0 mm | - | - | - |
| 1777929006 | 24.44° C | 25% | 995.4 hPa | 0 mm | - | - | - |
* Rain latest hour (hover to see other rain measurements)
** Current wind speed in m/s (hover to see current wind gust speed)